STARLINK-2538 (48300 NORAD) Tracking and Keplerian Element Data

This shows tracking and keplerian element data for the satellite.

Feedback or suggestion? Click here.




ElementValue
Catalog48300
NameSTARLINK-2538
Epoch Orbit187
Epoch Day170.58334491
Epoch Year2021
RAAN274.2999
Inclination53.0517
Eccentricity0.0001302
Argument of Perigee63.2863
Mean Anonmoly185.9917
Mean Motion15.49289042
Decay Rate-0.01081464
L11 48300U 21036AA 21170.58334491 -.01081464 00000-0 -21477-1 0 9993
L22 48300 53.0517 274.2999 0001302 63.2863 185.9917 15.49289042 1874

Live tracking and technical data element details for STARLINK-2538 (NORAD 48300). STARLINK-2538 can be tracked NOW for your location showing map with azimuth and elevation plus other details from your city location.

Track the satellite on the map from your city or location and see movement details for azimuth, elevation, latitude, longitude, range, height, and movement on the map or in text.







IsCatalogInMostPopularTable: catalog: 48300, numindb: 21
Update: records affected: 1



GetName: 48300 STARLINK-2538

Hit Count: updated at: Mon, 21 Jun 2021 04:54:52 GMT